DLH5NC LIPE-EDDF

Flight info

Callsign DLH5NC
Flight time 1h 24m
Altitude 30000
Route LUMAV M726 ALBET DCT RESIA DCT ARGAX DCT LADOL T163 EMPAX EMPAX5B
Aircraft A320/M-SDE2E3FGIJ1LORWXYZ/HB1

Departure

Time 2026-05-06 16:00
Airport Bologna Guglielmo Marconi Airport (LIPE)

Arrival

Time 2026-05-06 17:24
Airport Frankfurt Main Airport (EDDF)
Time Latitude Longitude Altitude Speed Heading
2026-05-06 15:41 44.53055 11.29378 131 ft 0 kts 208°
2026-05-06 15:52 44.53057 11.29379 131 ft 3 kts 208°
2026-05-06 15:52 44.53075 11.29395 125 ft 3 kts 223°
2026-05-06 15:52 44.53088 11.29417 127 ft 3 kts 252°
2026-05-06 15:53 44.53089 11.29443 126 ft 2 kts 295°
2026-05-06 15:53 44.53086 11.29451 127 ft 0 kts 297°
2026-05-06 15:55 44.53102 11.29407 130 ft 9 kts 296°
2026-05-06 15:56 44.53143 11.29366 128 ft 8 kts
2026-05-06 15:56 44.53197 11.29282 128 ft 16 kts 295°
2026-05-06 15:56 44.53245 11.29149 127 ft 15 kts 297°
2026-05-06 15:56 44.53297 11.29004 127 ft 22 kts 296°
2026-05-06 15:57 44.53368 11.28806 127 ft 24 kts 296°
2026-05-06 15:57 44.53445 11.28592 128 ft 25 kts 297°
2026-05-06 15:57 44.53528 11.28364 128 ft 27 kts 296°
2026-05-06 15:57 44.53615 11.28121 126 ft 29 kts 296°
2026-05-06 15:58 44.53697 11.27898 126 ft 23 kts 297°
2026-05-06 15:58 44.53769 11.27694 128 ft 24 kts 296°
2026-05-06 15:58 44.53840 11.27496 125 ft 17 kts 297°
2026-05-06 15:58 44.53867 11.27422 129 ft 0 kts 297°
2026-05-06 15:59 44.53877 11.27396 127 ft 12 kts 297°
2026-05-06 15:59 44.53937 11.27307 129 ft 13 kts 327°
2026-05-06 15:59 44.54037 11.27218 128 ft 17 kts 335°
2026-05-06 15:59 44.54106 11.27296 129 ft 14 kts 97°
2026-05-06 16:00 44.54033 11.27513 123 ft 51 kts 116°
2026-05-06 16:00 44.53758 11.28272 126 ft 120 kts 117°
2026-05-06 16:00 44.53307 11.29534 276 ft 159 kts 118°
2026-05-06 16:00 44.52847 11.30980 887 ft 166 kts 107°
2026-05-06 16:01 44.52747 11.32607 1660 ft 176 kts 87°
2026-05-06 16:01 44.53171 11.34347 2047 ft 203 kts 58°
2026-05-06 16:01 44.54244 11.35769 2414 ft 223 kts 26°
2026-05-06 16:01 44.55751 11.36317 3006 ft 227 kts 359°
2026-05-06 16:02 44.57335 11.36560 3699 ft 232 kts
2026-05-06 16:02 44.58890 11.37226 4383 ft 238 kts 19°
2026-05-06 16:02 44.60369 11.38332 5049 ft 242 kts 27°
2026-05-06 16:02 44.61834 11.39530 5730 ft 246 kts 27°
2026-05-06 16:03 44.63304 11.40738 6654 ft 244 kts 28°
2026-05-06 16:03 44.64764 11.41968 7452 ft 247 kts 32°
2026-05-06 16:03 44.66241 11.43417 7904 ft 271 kts 36°
2026-05-06 16:03 44.67771 11.45167 8333 ft 296 kts 40°
2026-05-06 16:04 44.69365 11.47122 9002 ft 309 kts 41°
2026-05-06 16:04 44.70994 11.49146 9874 ft 315 kts 41°
2026-05-06 16:04 44.72692 11.51236 10324 ft 337 kts 41°
2026-05-06 16:04 44.74513 11.53446 10835 ft 353 kts 40°
2026-05-06 16:05 44.76398 11.55703 11599 ft 359 kts 40°
2026-05-06 16:05 44.78332 11.57982 12403 ft 365 kts 38°
2026-05-06 16:05 44.80514 11.59834 13194 ft 369 kts 21°
2026-05-06 16:05 44.82982 11.60839 13936 ft 371 kts
2026-05-06 16:06 44.85554 11.60928 14632 ft 370 kts 350°
2026-05-06 16:06 44.88118 11.60480 15345 ft 372 kts 348°
2026-05-06 16:06 44.90669 11.60028 16047 ft 376 kts 348°
2026-05-06 16:06 44.93275 11.59570 16755 ft 380 kts 348°
2026-05-06 16:07 44.95913 11.59112 17470 ft 383 kts 348°
2026-05-06 16:07 44.98568 11.58650 18178 ft 387 kts 348°
2026-05-06 16:07 45.01260 11.58181 18774 ft 391 kts 348°
2026-05-06 16:07 45.03970 11.57710 19365 ft 395 kts 347°
2026-05-06 16:08 45.06707 11.57235 19968 ft 398 kts 347°
2026-05-06 16:08 45.09470 11.56753 20583 ft 401 kts 347°
2026-05-06 16:08 45.12250 11.56263 21157 ft 405 kts 347°
2026-05-06 16:08 45.15064 11.55765 21725 ft 409 kts 347°
2026-05-06 16:09 45.17897 11.55266 22275 ft 412 kts 347°
2026-05-06 16:09 45.20764 11.54763 22803 ft 417 kts 347°
2026-05-06 16:09 45.23609 11.54003 23291 ft 413 kts 335°
2026-05-06 16:09 45.26157 11.52267 23740 ft 402 kts 318°
2026-05-06 16:10 45.28335 11.49821 24183 ft 399 kts 312°
2026-05-06 16:10 45.30472 11.47295 24642 ft 402 kts 312°
2026-05-06 16:10 45.32624 11.44735 25085 ft 404 kts 311°
2026-05-06 16:10 45.34787 11.42158 25542 ft 407 kts 311°
2026-05-06 16:11 45.36937 11.39595 25975 ft 410 kts 311°
2026-05-06 16:11 45.39157 11.36954 26420 ft 412 kts 311°
2026-05-06 16:11 45.41341 11.34357 26837 ft 415 kts 311°
2026-05-06 16:11 45.43599 11.31669 27254 ft 419 kts 311°
2026-05-06 16:12 45.45833 11.29003 27675 ft 421 kts 311°
2026-05-06 16:12 45.48090 11.26310 28107 ft 424 kts 311°
2026-05-06 16:12 45.50326 11.23643 28492 ft 426 kts 311°
2026-05-06 16:12 45.52607 11.20921 28854 ft 429 kts 310°
2026-05-06 16:13 45.54898 11.18181 29265 ft 431 kts 310°
2026-05-06 16:13 45.57209 11.15413 29682 ft 434 kts 310°
2026-05-06 16:13 45.59527 11.12635 29864 ft 434 kts 310°
2026-05-06 16:13 45.61795 11.09934 29878 ft 416 kts 310°
2026-05-06 16:14 45.63986 11.07336 29900 ft 403 kts 309°
2026-05-06 16:14 45.66117 11.04786 29890 ft 397 kts 309°
2026-05-06 16:14 45.70316 10.99699 29894 ft 394 kts 308°
2026-05-06 16:15 45.74486 10.94641 29900 ft 393 kts 308°
2026-05-06 16:15 45.78659 10.89579 29900 ft 393 kts 308°
2026-05-06 16:16 45.82129 10.85369 29901 ft 394 kts 308°
2026-05-06 16:16 45.86296 10.80310 29906 ft 392 kts 308°
2026-05-06 16:17 45.91148 10.74402 29911 ft 394 kts 308°
2026-05-06 16:17 45.94618 10.70162 29941 ft 393 kts 308°
2026-05-06 16:18 45.98791 10.65051 29904 ft 394 kts 308°
2026-05-06 16:18 46.02979 10.59935 29907 ft 395 kts 308°
2026-05-06 16:19 46.07168 10.54813 29898 ft 395 kts 308°
2026-05-06 16:19 46.11353 10.49671 29897 ft 395 kts 308°
2026-05-06 16:20 46.15529 10.44521 29903 ft 395 kts 308°
2026-05-06 16:20 46.19710 10.39356 29947 ft 396 kts 308°
2026-05-06 16:21 46.23868 10.34206 29923 ft 397 kts 308°
2026-05-06 16:21 46.28059 10.29004 29908 ft 397 kts 308°
2026-05-06 16:22 46.32262 10.23788 29908 ft 398 kts 308°
2026-05-06 16:22 46.36463 10.18569 29901 ft 397 kts 308°
2026-05-06 16:23 46.40603 10.13404 29897 ft 397 kts 308°
2026-05-06 16:23 46.44788 10.08165 29927 ft 397 kts 308°
2026-05-06 16:24 46.48970 10.02914 29908 ft 398 kts 308°
2026-05-06 16:24 46.53107 9.97613 29884 ft 397 kts 307°
2026-05-06 16:25 46.57235 9.92258 29887 ft 397 kts 308°
2026-05-06 16:25 46.61372 9.86889 29913 ft 399 kts 308°
2026-05-06 16:26 46.65535 9.81500 29910 ft 400 kts 308°
2026-05-06 16:26 46.69684 9.76125 29924 ft 398 kts 307°
2026-05-06 16:27 46.73819 9.70743 29913 ft 399 kts 307°
2026-05-06 16:27 46.77955 9.65355 29903 ft 398 kts 308°
2026-05-06 16:28 46.82084 9.59965 29880 ft 398 kts 308°
2026-05-06 16:28 46.86172 9.54605 29884 ft 399 kts 308°
2026-05-06 16:29 46.90291 9.49193 29867 ft 398 kts 308°
2026-05-06 16:29 46.94437 9.43741 29916 ft 399 kts 308°
2026-05-06 16:30 46.97866 9.39221 29898 ft 399 kts 308°
2026-05-06 16:30 47.02695 9.32946 29882 ft 403 kts 314°
2026-05-06 16:31 47.05087 9.30690 29874 ft 414 kts 324°
2026-05-06 16:31 47.07779 9.29050 29870 ft 425 kts 335°
2026-05-06 16:31 47.13617 9.27188 29865 ft 431 kts 341°
2026-05-06 16:32 47.19498 9.25426 29875 ft 431 kts 341°
2026-05-06 16:32 47.25384 9.23637 29889 ft 431 kts 341°
2026-05-06 16:33 47.31244 9.21833 29886 ft 430 kts 341°
2026-05-06 16:34 47.40028 9.19142 29871 ft 429 kts 341°
2026-05-06 16:34 47.45875 9.17357 29907 ft 429 kts 343°
2026-05-06 16:35 47.51717 9.15565 29899 ft 428 kts 343°
2026-05-06 16:35 47.57548 9.13770 29886 ft 428 kts 343°
2026-05-06 16:36 47.63385 9.11972 29876 ft 428 kts 343°
2026-05-06 16:36 47.69175 9.10184 29881 ft 427 kts 343°
2026-05-06 16:37 47.74993 9.08381 29879 ft 427 kts 343°
2026-05-06 16:37 47.80811 9.06567 29867 ft 427 kts 343°
2026-05-06 16:38 47.86622 9.04762 29870 ft 427 kts 343°
2026-05-06 16:38 47.92435 9.02957 29856 ft 426 kts 343°
2026-05-06 16:39 47.98242 9.01132 29857 ft 426 kts 343°
2026-05-06 16:39 48.04045 8.99311 29864 ft 426 kts 343°
2026-05-06 16:40 48.09841 8.97483 29898 ft 426 kts 345°
2026-05-06 16:40 48.15611 8.95787 29887 ft 426 kts 352°
2026-05-06 16:41 48.21526 8.96048 29889 ft 426 kts
2026-05-06 16:41 48.27445 8.96958 29871 ft 426 kts
2026-05-06 16:42 48.33321 8.97851 29860 ft 425 kts
2026-05-06 16:42 48.39201 8.98744 29851 ft 424 kts
2026-05-06 16:43 48.45082 8.99639 29848 ft 424 kts
2026-05-06 16:43 48.51000 9.00540 29850 ft 438 kts
2026-05-06 16:43 48.54021 9.01000 29405 ft 443 kts
2026-05-06 16:44 48.57089 9.01466 28697 ft 442 kts
2026-05-06 16:44 48.60140 9.01930 28105 ft 438 kts
2026-05-06 16:44 48.63159 9.02399 27531 ft 434 kts
2026-05-06 16:44 48.66138 9.02969 26988 ft 430 kts
2026-05-06 16:45 48.69086 9.03649 26398 ft 427 kts
2026-05-06 16:45 48.71993 9.04390 25958 ft 421 kts 10°
2026-05-06 16:45 48.74863 9.05145 25225 ft 416 kts
2026-05-06 16:45 48.77690 9.05880 24918 ft 407 kts
2026-05-06 16:46 48.80472 9.06580 24438 ft 404 kts
2026-05-06 16:46 48.83231 9.07251 23951 ft 401 kts
2026-05-06 16:46 48.85974 9.07906 23455 ft 398 kts
2026-05-06 16:46 48.88704 9.08541 22929 ft 396 kts
2026-05-06 16:47 48.91429 9.09046 22442 ft 391 kts
2026-05-06 16:47 48.94122 9.09430 21974 ft 387 kts
2026-05-06 16:47 48.96802 9.09760 21508 ft 384 kts
2026-05-06 16:47 48.99455 9.10080 21050 ft 381 kts
2026-05-06 16:48 49.02091 9.10412 20590 ft 378 kts
2026-05-06 16:48 49.04693 9.10758 20117 ft 377 kts
2026-05-06 16:48 49.07307 9.11122 19644 ft 375 kts
2026-05-06 16:48 49.09909 9.11495 19178 ft 374 kts
2026-05-06 16:49 49.12493 9.11870 18712 ft 373 kts
2026-05-06 16:49 49.15069 9.12243 18253 ft 372 kts
2026-05-06 16:49 49.17645 9.12614 17736 ft 371 kts
2026-05-06 16:49 49.20200 9.12980 17275 ft 368 kts
2026-05-06 16:50 49.22747 9.13347 16818 ft 365 kts
2026-05-06 16:50 49.25235 9.13710 16373 ft 363 kts
2026-05-06 16:50 49.27772 9.14079 15981 ft 359 kts
2026-05-06 16:50 49.29396 9.14507 15638 ft 359 kts 13°
2026-05-06 16:51 49.32599 9.15642 15059 ft 357 kts 13°
2026-05-06 16:51 49.35012 9.16500 14715 ft 352 kts 13°
2026-05-06 16:51 49.37392 9.17345 14327 ft 350 kts 12°
2026-05-06 16:51 49.39750 9.18179 13957 ft 347 kts 12°
2026-05-06 16:52 49.42103 9.19015 13566 ft 342 kts 12°
2026-05-06 16:52 49.44394 9.19832 12781 ft 338 kts 12°
2026-05-06 16:52 49.46672 9.20643 12029 ft 332 kts 12°
2026-05-06 16:52 49.48887 9.21433 11573 ft 319 kts 13°
2026-05-06 16:53 49.51014 9.22189 11172 ft 310 kts 13°
2026-05-06 16:53 49.53098 9.22929 10755 ft 306 kts 13°
2026-05-06 16:53 49.55157 9.23662 10645 ft 305 kts 13°
2026-05-06 16:53 49.57220 9.24399 10551 ft 304 kts 13°
2026-05-06 16:54 49.59282 9.25137 10408 ft 304 kts 13°
2026-05-06 16:54 49.61336 9.25872 10121 ft 301 kts 13°
2026-05-06 16:54 49.63384 9.26318 9798 ft 297 kts 357°
2026-05-06 16:54 49.65397 9.25725 9429 ft 295 kts 343°
2026-05-06 16:55 49.67363 9.24824 9049 ft 293 kts 342°
2026-05-06 16:55 49.69302 9.23923 8806 ft 291 kts 342°
2026-05-06 16:55 49.71240 9.23015 8806 ft 293 kts 342°
2026-05-06 16:55 49.73201 9.22093 8813 ft 293 kts 342°
2026-05-06 16:56 49.75156 9.21175 8769 ft 292 kts 342°
2026-05-06 16:56 49.77069 9.20278 8372 ft 291 kts 342°
2026-05-06 16:56 49.79024 9.19363 7949 ft 289 kts 342°
2026-05-06 16:56 49.80919 9.18475 7543 ft 287 kts 342°
2026-05-06 16:57 49.82829 9.17577 7119 ft 286 kts 342°
2026-05-06 16:57 49.84726 9.16682 6839 ft 283 kts 342°
2026-05-06 16:57 49.86610 9.15792 6800 ft 283 kts 342°
2026-05-06 16:57 49.88493 9.14907 6471 ft 282 kts 342°
2026-05-06 16:58 49.90366 9.14026 6036 ft 281 kts 342°
2026-05-06 16:58 49.92234 9.13143 5610 ft 280 kts 342°
2026-05-06 16:58 49.94095 9.12264 5182 ft 278 kts 342°
2026-05-06 16:58 49.95941 9.11393 4816 ft 275 kts 342°
2026-05-06 16:59 49.97745 9.10515 4475 ft 269 kts 338°
2026-05-06 16:59 49.99371 9.09095 4063 ft 267 kts 325°
2026-05-06 16:59 50.00903 9.07463 4000 ft 269 kts 324°
2026-05-06 16:59 50.02449 9.05790 4005 ft 270 kts 324°
2026-05-06 17:00 50.03991 9.04118 4003 ft 270 kts 324°
2026-05-06 17:00 50.05490 9.02499 4003 ft 253 kts 324°
2026-05-06 17:00 50.06904 9.00974 4006 ft 242 kts 324°
2026-05-06 17:00 50.08236 8.99480 4006 ft 238 kts 317°
2026-05-06 17:01 50.09144 8.97356 4009 ft 234 kts 289°
2026-05-06 17:01 50.09648 8.94938 4005 ft 234 kts 284°
2026-05-06 17:01 50.10085 8.92530 4006 ft 234 kts 284°
2026-05-06 17:01 50.10517 8.90082 4005 ft 234 kts 284°
2026-05-06 17:02 50.10706 8.87589 4003 ft 232 kts 263°
2026-05-06 17:02 50.10296 8.85167 3833 ft 230 kts 249°
2026-05-06 17:02 50.09740 8.82847 3548 ft 228 kts 248°
2026-05-06 17:02 50.09189 8.80538 3253 ft 227 kts 249°
2026-05-06 17:03 50.08650 8.78255 2953 ft 222 kts 249°
2026-05-06 17:03 50.08138 8.76088 2669 ft 203 kts 249°
2026-05-06 17:03 50.07666 8.74092 2426 ft 192 kts 250°
2026-05-06 17:03 50.07211 8.72165 2160 ft 188 kts 250°
2026-05-06 17:04 50.06855 8.70235 1881 ft 181 kts 259°
2026-05-06 17:04 50.06686 8.68429 1672 ft 157 kts 262°
2026-05-06 17:04 50.06463 8.66847 1409 ft 145 kts 252°
2026-05-06 17:04 50.06129 8.65398 1168 ft 140 kts 249°
2026-05-06 17:05 50.05754 8.63968 1010 ft 143 kts 251°
2026-05-06 17:05 50.05404 8.62553 888 ft 139 kts 252°
2026-05-06 17:05 50.05079 8.61137 746 ft 139 kts 254°
2026-05-06 17:05 50.04864 8.60200 631 ft 138 kts 253°
2026-05-06 17:06 50.04517 8.58709 644 ft 163 kts 253°
2026-05-06 17:06 50.04102 8.56889 1200 ft 192 kts 252°
2026-05-06 17:06 50.03505 8.54219 2303 ft 203 kts 251°
2026-05-06 17:06 50.03190 8.52806 2753 ft 207 kts 250°
2026-05-06 17:07 50.02709 8.50690 3539 ft 207 kts 249°
2026-05-06 17:07 50.02212 8.48579 4325 ft 209 kts 249°
2026-05-06 17:07 50.01723 8.46430 4868 ft 213 kts 254°
2026-05-06 17:07 50.01768 8.44147 4984 ft 216 kts 288°
2026-05-06 17:08 50.02648 8.42283 5018 ft 219 kts 323°
2026-05-06 17:08 50.04056 8.41510 5019 ft 222 kts 357°
2026-05-06 17:08 50.05536 8.42100 5019 ft 224 kts 32°
2026-05-06 17:08 50.06754 8.43606 5021 ft 224 kts 42°
2026-05-06 17:09 50.07903 8.45258 5009 ft 224 kts 44°
2026-05-06 17:09 50.09040 8.46920 5006 ft 224 kts 44°
2026-05-06 17:09 50.10173 8.48584 5007 ft 224 kts 44°
2026-05-06 17:09 50.11307 8.50250 5008 ft 224 kts 44°
2026-05-06 17:10 50.12444 8.51921 5007 ft 224 kts 44°
2026-05-06 17:10 50.13572 8.53589 5006 ft 224 kts 44°
2026-05-06 17:10 50.14667 8.55309 5003 ft 224 kts 54°
2026-05-06 17:10 50.15335 8.57484 5010 ft 223 kts 71°
2026-05-06 17:11 50.15819 8.59768 5014 ft 222 kts 73°
2026-05-06 17:11 50.16282 8.62066 5009 ft 222 kts 74°
2026-05-06 17:11 50.16744 8.64364 5007 ft 222 kts 74°
2026-05-06 17:11 50.17207 8.66667 5007 ft 222 kts 74°
2026-05-06 17:12 50.17670 8.68967 5007 ft 222 kts 74°
2026-05-06 17:12 50.18134 8.71276 5007 ft 223 kts 74°
2026-05-06 17:12 50.18594 8.73577 5006 ft 223 kts 74°
2026-05-06 17:12 50.19054 8.75889 5006 ft 222 kts 74°
2026-05-06 17:13 50.19513 8.78189 5009 ft 223 kts 74°
2026-05-06 17:13 50.19974 8.80504 5007 ft 223 kts 74°
2026-05-06 17:13 50.20426 8.82782 5007 ft 223 kts 74°
2026-05-06 17:13 50.20889 8.85116 5002 ft 222 kts 74°
2026-05-06 17:14 50.21342 8.87396 5005 ft 223 kts 74°
2026-05-06 17:14 50.21801 8.89705 5001 ft 222 kts 74°
2026-05-06 17:14 50.22256 8.92006 4960 ft 220 kts 74°
2026-05-06 17:14 50.22713 8.94316 4576 ft 220 kts 74°
2026-05-06 17:15 50.23158 8.96566 4182 ft 219 kts 73°
2026-05-06 17:15 50.23601 8.98828 3997 ft 217 kts 73°
2026-05-06 17:15 50.24040 9.01091 4009 ft 218 kts 74°
2026-05-06 17:15 50.24474 9.03375 4001 ft 219 kts 77°
2026-05-06 17:16 50.24449 9.05710 3995 ft 216 kts 111°
2026-05-06 17:16 50.23596 9.07554 3997 ft 211 kts 147°
2026-05-06 17:16 50.22231 9.08256 3997 ft 207 kts 182°
2026-05-06 17:16 50.20899 9.07574 4006 ft 204 kts 215°
2026-05-06 17:17 50.19819 9.06120 3995 ft 206 kts 226°
2026-05-06 17:17 50.18831 9.04523 4000 ft 205 kts 227°
2026-05-06 17:17 50.17849 9.02908 4003 ft 205 kts 226°
2026-05-06 17:17 50.16872 9.01297 4003 ft 205 kts 226°
2026-05-06 17:18 50.15888 8.99678 4000 ft 205 kts 227°
2026-05-06 17:18 50.14906 8.98063 4012 ft 205 kts 227°
2026-05-06 17:18 50.13922 8.96445 3999 ft 206 kts 226°
2026-05-06 17:18 50.12935 8.94821 4008 ft 207 kts 227°
2026-05-06 17:19 50.12133 8.92988 4004 ft 205 kts 245°
2026-05-06 17:19 50.11616 8.90910 4008 ft 206 kts 249°
2026-05-06 17:19 50.11132 8.88814 4000 ft 205 kts 249°
2026-05-06 17:19 50.10656 8.86772 3983 ft 197 kts 249°
2026-05-06 17:20 50.10187 8.84777 3809 ft 195 kts 249°
2026-05-06 17:20 50.09729 8.82830 3564 ft 195 kts 250°
2026-05-06 17:20 50.09260 8.80843 3324 ft 195 kts 250°
2026-05-06 17:20 50.08795 8.78870 3064 ft 193 kts 250°
2026-05-06 17:21 50.08330 8.76901 2811 ft 194 kts 250°
2026-05-06 17:21 50.07868 8.74946 2544 ft 189 kts 251°
2026-05-06 17:21 50.07453 8.73071 2315 ft 178 kts 256°
2026-05-06 17:21 50.07232 8.71203 2150 ft 173 kts 263°
2026-05-06 17:22 50.07049 8.69359 1931 ft 168 kts 263°
2026-05-06 17:22 50.06807 8.67701 1680 ft 149 kts 252°
2026-05-06 17:22 50.06413 8.66291 1452 ft 139 kts 247°
2026-05-06 17:22 50.06013 8.64913 1261 ft 140 kts 250°
2026-05-06 17:23 50.05656 8.63532 1081 ft 135 kts 250°
2026-05-06 17:23 50.05328 8.62191 923 ft 131 kts 254°
2026-05-06 17:23 50.05029 8.60862 722 ft 130 kts 252°
2026-05-06 17:23 50.04713 8.59573 546 ft 130 kts 254°
2026-05-06 17:24 50.04402 8.58248 389 ft 129 kts 253°
2026-05-06 17:24 50.04137 8.57105 368 ft 88 kts 250°
2026-05-06 17:24 50.03978 8.56409 360 ft 52 kts 252°
2026-05-06 17:24 50.03886 8.55969 351 ft 33 kts 263°
2026-05-06 17:25 50.03903 8.55702 348 ft 15 kts 279°
2026-05-06 17:25 50.03907 8.55665 353 ft 0 kts 280°
2026-05-06 17:26 50.03907 8.55663 353 ft 2 kts 281°
2026-05-06 17:26 50.03967 8.55642 349 ft 15 kts 37°
2026-05-06 17:26 50.04008 8.55781 351 ft 14 kts 70°
2026-05-06 17:26 50.04060 8.55997 353 ft 25 kts 69°
2026-05-06 17:27 50.04122 8.56256 355 ft 26 kts 69°
2026-05-06 17:27 50.04187 8.56530 359 ft 27 kts 70°
2026-05-06 17:27 50.04253 8.56804 359 ft 27 kts 69°
2026-05-06 17:27 50.04319 8.57082 369 ft 28 kts 70°
2026-05-06 17:28 50.04385 8.57357 361 ft 24 kts 69°
2026-05-06 17:28 50.04434 8.57563 364 ft 20 kts 70°
2026-05-06 17:28 50.04478 8.57745 366 ft 17 kts 69°
2026-05-06 17:28 50.04523 8.57937 365 ft 17 kts 70°
2026-05-06 17:29 50.04593 8.58030 360 ft 15 kts 347°
2026-05-06 17:29 50.04704 8.57963 363 ft 18 kts 340°
2026-05-06 17:29 50.04805 8.57973 358 ft 15 kts 54°
2026-05-06 17:29 50.04839 8.58111 362 ft 12 kts 69°
2026-05-06 17:30 50.04875 8.58259 366 ft 18 kts 69°
2026-05-06 17:30 50.04916 8.58435 359 ft 16 kts 70°
2026-05-06 17:30 50.04952 8.58584 362 ft 13 kts 70°
2026-05-06 17:30 50.04982 8.58722 359 ft 10 kts 82°
2026-05-06 17:31 50.04944 8.58771 363 ft 6 kts 161°
2026-05-06 17:31 50.04923 8.58783 363 ft 2 kts 160°
2026-05-06 17:31 50.04903 8.58795 366 ft 1 kts 160°
2026-05-06 17:31 50.04901 8.58796 366 ft 0 kts 160°